Winfield, KS

10:10 AM CST on December 13, 2019 (GMT -0600)
Strother

Weather History for KWLD - October, 2019

Change the Weather History Date:

Friday, October 4, 2019

  Actual Average Record
Temperature  
Mean Temperature 62 °F -  
Max Temperature 69 °F 72 °F 89 °F (2005)
Min Temperature 55 °F 50 °F 36 °F (2014)
Degree Days  
Heating Degree Days 4    
Growing Degree Days 12 (Base 50)    
Moisture  
Dew Point 56 °F    
Average Humidity 80    
Maximum Humidity 93    
Minimum Humidity 68    
Precipitation  
Precipitation 0.00 in - - ()
Sea Level Pressure  
Sea Level Pressure 30.19 in    
Wind  
Wind Speed 7 mph ()    
Max Wind Speed 13 mph    
Max Gust Speed -    
Visibility 10.0 miles    
Events Rain , Thunderstorm    
Averages and records for this station are not official NWS values.
T = Trace of Precipitation, MM = Missing Value Source: Averaged Metar Reports

Daily Weather History Graph

Daily Weather History Graph

Search for Another Location

Airport or City:

Astronomy

Oct. 04, 2019 Rise Set
Actual Time 7:25 AM CDT 7:07 PM CDT
Civil Twilight 7:00 AM CDT 7:33 PM CDT
Nautical Twilight 6:29 AM CDT 8:03 PM CDT
Astronomical Twilight 5:59 AM CDT 8:33 PM CDT
Moon 1:51 PM CDT (10/4) 11:44 PM CDT (10/4)
Length of Visible Light 12h 33m
Length of Day
11h 41m
Waxing Crescent, 40% of the Moon is Illuminated
Oct 4
Waxing Crescent
Oct 5
First Quarter
Oct 13
Full
Oct 21
Last Quarter
Oct 27
New

Hourly Weather History & Observations

Time (CDT) Temp. Dew Point Humidity Pressure Visibility Wind Dir Wind Speed Gust Speed Precip Events Conditions
12:54 AM 55.9 °F 50.0 °F 80% 30.27 in 10.0 mi NE 8.1 mph - N/A   Overcast
1:54 AM 55.9 °F 50.0 °F 80% 30.26 in 10.0 mi ENE 8.1 mph - N/A   Overcast
2:54 AM 55.0 °F 50.0 °F 83% 30.27 in 10.0 mi NE 5.8 mph - N/A   Overcast
3:54 AM 55.0 °F 50.0 °F 83% 30.25 in 10.0 mi NE 8.1 mph - N/A   Mostly Cloudy
4:54 AM 55.9 °F 50.0 °F 80% 30.27 in 10.0 mi ENE 9.2 mph - N/A   Overcast
5:54 AM 55.0 °F 50.0 °F 83% 30.26 in 10.0 mi ENE 8.1 mph - N/A   Overcast
6:54 AM 55.0 °F 50.0 °F 83% 30.27 in 10.0 mi ENE 9.2 mph - N/A   Overcast
7:54 AM 55.0 °F 50.0 °F 83% 30.26 in 10.0 mi East 8.1 mph - N/A   Scattered Clouds
8:54 AM 57.0 °F 51.1 °F 81% 30.26 in 10.0 mi East 10.4 mph - N/A   Scattered Clouds
9:54 AM 59.0 °F 52.0 °F 78% 30.26 in 10.0 mi East 8.1 mph - N/A   Scattered Clouds
10:54 AM 62.1 °F 53.1 °F 72% 30.25 in 10.0 mi East 8.1 mph - N/A   Mostly Cloudy
11:54 AM 63.0 °F 54.0 °F 72% 30.23 in 10.0 mi ENE 6.9 mph - 0.00 in   Scattered Clouds
12:54 PM 64.9 °F 57.0 °F 75% 30.20 in 10.0 mi East 5.8 mph - 0.00 in Rain Light Rain
1:10 PM 66.0 °F 57.0 °F 73% 30.21 in 10.0 mi ENE 9.2 mph - 0.00 in Thunderstorm Mostly Cloudy
1:25 PM 66.0 °F 57.0 °F 73% 30.20 in 10.0 mi East 9.2 mph - 0.00 in   Mostly Cloudy
1:54 PM 68.0 °F 59.0 °F 73% 30.17 in 10.0 mi ESE 8.1 mph - 0.00 in   Overcast
2:01 PM 68.0 °F 57.0 °F 68% 30.18 in 10.0 mi East 10.4 mph - N/A   Overcast
2:54 PM 68.0 °F 57.9 °F 70% 30.14 in 10.0 mi ESE 12.7 mph - N/A   Overcast
3:54 PM 66.9 °F 59.0 °F 76% 30.14 in 10.0 mi East 8.1 mph - N/A   Overcast
4:54 PM 66.9 °F 60.1 °F 79% 30.12 in 10.0 mi East 8.1 mph - N/A   Overcast
5:54 PM 66.0 °F 61.0 °F 84% 30.12 in 10.0 mi ESE 6.9 mph - N/A   Overcast
6:54 PM 66.0 °F 61.0 °F 84% 30.12 in 10.0 mi East 9.2 mph - N/A   Overcast
7:24 PM 66.0 °F 61.0 °F 84% 30.13 in 10.0 mi East 5.8 mph - N/A   Overcast
7:54 PM 64.9 °F 60.1 °F 84% 30.11 in 10.0 mi East 6.9 mph - N/A   Scattered Clouds
8:54 PM 64.0 °F 61.0 °F 90% 30.10 in 10.0 mi ESE 6.9 mph - N/A   Clear
9:54 PM 63.0 °F 61.0 °F 93% 30.07 in 10.0 mi ESE 8.1 mph - N/A   Clear
10:54 PM 64.9 °F 61.0 °F 87% 30.05 in 10.0 mi ESE 6.9 mph - N/A   Clear
11:54 PM 64.9 °F 62.1 °F 90% 30.03 in 10.0 mi SE 9.2 mph - N/A   Clear